DW8452 Acharnes GR current weather conditions

sailwx.info

Wind from 129 at 2 knots gusting 6

Air temperature 31.7° C
Dewpoint 19.6° C

Last reported at 2020-Aug-06 10:05 UTC.
Time now 2020-Aug-06 10:20 UTC

Location: N 38°05' E 023°45'.
View on Google Maps.

See reports from other nearby stations

  
Tides and Currents Weather Stations Pressure Air Temp Water Temp Dewpoint Dewpoint Depression Visibility Wind Speed Wind Dir Waves Ship Positions
date/time (UTC)wind fromknots sea level pressurealtimeterstation pressurevisibilityair tempwater tempwave heightnotes
2020-Aug-06 10:05 129 2 gusting 6 31.7
2020-Aug-06 10:00 042 1 gusting 5 31.1
2020-Aug-06 09:55 062 2 gusting 5 31.1
2020-Aug-06 09:50 086 1 gusting 5 31.7
2020-Aug-06 09:40 126 1 gusting 6 31.7
2020-Aug-06 09:35 094 2 gusting 6 31.1
2020-Aug-06 09:30 087 2 gusting 6 31.1
2020-Aug-06 09:25 073 2 gusting 6 31.1
2020-Aug-06 09:20 053 3 gusting 9 31.1
2020-Aug-06 09:15 063 2 gusting 9 31.1
2020-Aug-06 09:10 069 1 gusting 6 31.1
2020-Aug-06 09:05 356 1 gusting 6 31.7
2020-Aug-06 09:00 002 1 gusting 6 31.7
2020-Aug-06 08:55 201 0 gusting 3 31.7
2020-Aug-06 08:50 242 0 gusting 3 31.1
2020-Aug-06 08:45 146 0 gusting 5 30.6
2020-Aug-06 08:40 089 1 gusting 5 30.0
2020-Aug-06 08:35 042 1 gusting 6 30.0
2020-Aug-06 08:30 025 2 gusting 7 30.0
2020-Aug-06 08:25 036 2 gusting 7 30.0
2020-Aug-06 08:20 058 3 gusting 7 29.4
2020-Aug-06 08:15 048 3 gusting 7 29.4
2020-Aug-06 08:10 055 3 gusting 7 29.4
2020-Aug-06 08:05 049 3 gusting 9 29.4
2020-Aug-06 08:00 046 4 gusting 10 28.9
2020-Aug-06 07:55 062 4 gusting 10 28.9
2020-Aug-06 07:45 075 4 gusting 10 28.9
2020-Aug-06 07:40 070 4 gusting 10 28.9
2020-Aug-06 07:35 043 4 gusting 11 28.9
2020-Aug-06 07:30 053 4 gusting 11 28.9
2020-Aug-06 07:25 064 5 gusting 12 28.9
2020-Aug-06 07:20 079 5 gusting 12 28.9
2020-Aug-06 07:15 067 5 gusting 11 28.9
2020-Aug-06 07:10 059 5 gusting 11 28.3
2020-Aug-06 07:05 060 6 gusting 11 28.3
2020-Aug-06 07:00 060 6 gusting 11 28.3
2020-Aug-06 06:55 074 6 gusting 11 27.8
2020-Aug-06 06:50 079 5 gusting 12 27.8
2020-Aug-06 06:45 079 6 gusting 13 27.8
2020-Aug-06 06:40 065 6 gusting 13 27.8
2020-Aug-06 06:35 056 5 gusting 10 27.8
2020-Aug-06 06:30 072 5 gusting 13 27.8
2020-Aug-06 06:25 075 6 gusting 13 27.2
2020-Aug-06 06:20 078 6 gusting 13 27.2
2020-Aug-06 06:15 090 6 gusting 13 27.2
2020-Aug-06 06:10 068 6 gusting 13 27.2
2020-Aug-06 06:05 040 6 gusting 14 26.7
2020-Aug-06 06:00 054 7 gusting 14 26.7
2020-Aug-06 05:55 071 6 gusting 15 26.7
2020-Aug-06 05:50 062 5 gusting 15 26.7
2020-Aug-06 05:45 057 6 gusting 14 26.7
2020-Aug-06 05:40 058 7 gusting 14 26.7
2020-Aug-06 05:35 057 6 gusting 14 26.7
2020-Aug-06 05:30 053 6 gusting 14 26.7
2020-Aug-06 05:25 035 6 gusting 14 26.7
2020-Aug-06 05:20 023 6 gusting 14 26.7
2020-Aug-06 05:15 049 6 gusting 14 26.7
2020-Aug-06 05:10 063 6 gusting 14 26.7
2020-Aug-06 05:05 034 6 gusting 14 26.7
2020-Aug-06 05:00 015 6 gusting 13 26.7
2020-Aug-06 04:55 022 7 gusting 18 26.7
2020-Aug-06 04:50 043 7 gusting 18 26.7
2020-Aug-06 04:45 043 7 gusting 14 26.1
2020-Aug-06 04:40 026 6 gusting 13 26.1
2020-Aug-06 04:35 011 5 gusting 11 26.1
2020-Aug-06 04:30 028 4 gusting 12 26.1
2020-Aug-06 04:25 041 5 gusting 17 26.1
2020-Aug-06 04:20 034 6 gusting 17 26.1
2020-Aug-06 04:15 047 6 gusting 17 26.1
2020-Aug-06 04:10 039 6 gusting 14 26.1
2020-Aug-06 04:05 031 6 gusting 13 26.1
2020-Aug-06 03:55 041 5 gusting 12 26.1
2020-Aug-06 03:50 024 5 gusting 12 25.6
2020-Aug-06 03:45 026 5 gusting 11 25.6
2020-Aug-06 03:40 026 4 gusting 9 25.6
2020-Aug-06 03:35 044 4 gusting 9 25.6
2020-Aug-06 03:30 058 6 gusting 13 25.6
2020-Aug-06 03:25 048 6 gusting 13 25.6
2020-Aug-06 03:20 047 5 gusting 11 25.6
2020-Aug-06 03:15 038 6 gusting 12 25.6
2020-Aug-06 03:10 034 6 gusting 12 25.6
2020-Aug-06 03:05 031 6 gusting 11 26.1
2020-Aug-06 02:55 045 5 gusting 10 26.1
2020-Aug-06 02:50 029 5 gusting 10 25.6
2020-Aug-06 02:45 033 5 gusting 9 25.6
2020-Aug-06 02:40 029 5 gusting 9 26.1
2020-Aug-06 02:35 029 4 gusting 9 25.6
2020-Aug-06 02:30 022 5 gusting 10 25.6
2020-Aug-06 02:25 018 5 gusting 10 26.1
2020-Aug-06 02:20 034 4 gusting 9 25.6
2020-Aug-06 02:15 039 5 gusting 10 25.6
2020-Aug-06 02:10 037 4 gusting 10 25.6
2020-Aug-06 02:05 054 3 gusting 7 25.6
2020-Aug-06 02:00 054 4 gusting 8 25.6
2020-Aug-06 01:55 050 4 gusting 9 25.6
2020-Aug-06 01:50 051 5 gusting 12 25.6
2020-Aug-06 01:45 041 5 gusting 12 25.6
2020-Aug-06 01:40 034 5 gusting 9 25.6
2020-Aug-06 01:35 052 4 gusting 9 25.0
2020-Aug-06 01:30 058 4 gusting 9 25.0
2020-Aug-06 01:25 048 4 gusting 9 25.0
2020-Aug-06 01:20 040 4 gusting 8 24.4
2020-Aug-06 01:15 035 4 gusting 8 24.4
2020-Aug-06 01:10 045 3 gusting 8 24.4
2020-Aug-06 01:05 044 4 gusting 8 24.4
2020-Aug-06 01:00 028 3 gusting 7 25.0
2020-Aug-06 00:55 028 3 gusting 9 25.0
2020-Aug-06 00:50 038 4 gusting 9 25.0
2020-Aug-06 00:40 047 4 gusting 8 25.0
2020-Aug-06 00:35 049 4 gusting 9 25.0
2020-Aug-06 00:30 035 4 gusting 9 25.0
2020-Aug-06 00:25 022 2 gusting 6 24.4
2020-Aug-06 00:20 028 1 gusting 4 24.4
2020-Aug-06 00:15 002 0 gusting 4 25.0
2020-Aug-06 00:10 351 0 gusting 3 25.0
2020-Aug-06 00:05 003 0 gusting 2 25.0
2020-Aug-06 00:00 353 0 gusting 1 24.4
2020-Aug-05 23:55 357 25.0
2020-Aug-05 23:50 354 0 gusting 2 25.0
2020-Aug-05 23:45 339 0 gusting 3 25.0
2020-Aug-05 23:40 002 1 gusting 4 25.0
2020-Aug-05 23:35 011 1 gusting 6 25.0
2020-Aug-05 23:30 014 1 gusting 6 25.0
2020-Aug-05 23:25 017 1 gusting 5 25.0
2020-Aug-05 23:20 011 1 gusting 5 24.4
2020-Aug-05 23:15 011 1 gusting 4 24.4
2020-Aug-05 23:10 031 0 gusting 2 24.4
2020-Aug-05 23:05 047 1 gusting 3 24.4
2020-Aug-05 23:00 047 1 gusting 3 25.0
2020-Aug-05 22:55 033 0 gusting 3 25.0
2020-Aug-05 22:50 014 25.0
2020-Aug-05 22:45 029 25.0
2020-Aug-05 22:40 014 25.0
2020-Aug-05 22:35 003 25.0
2020-Aug-05 22:30 022 25.0
2020-Aug-05 22:25 026 25.0
2020-Aug-05 22:20 353 25.0
2020-Aug-05 22:15 318 0 gusting 2 25.0
2020-Aug-05 22:10 317 0 gusting 2 25.0
2020-Aug-05 22:05 326 0 gusting 2 25.0
2020-Aug-05 22:00 311 0 gusting 1 25.0
2020-Aug-05 21:55 309 0 gusting 2 25.0
2020-Aug-05 21:50 321 1 gusting 2 25.0
2020-Aug-05 21:45 323 1 gusting 2 25.0
2020-Aug-05 21:40 322 0 gusting 2 25.0
2020-Aug-05 21:35 329 0 gusting 1 25.6
2020-Aug-05 21:30 334 25.6
2020-Aug-05 21:25 028 25.6
2020-Aug-05 21:20 046 25.6
2020-Aug-05 21:15 354 25.6
2020-Aug-05 21:10 347 0 gusting 1 25.6
2020-Aug-05 21:05 357 25.6
2020-Aug-05 21:00 356 25.6
2020-Aug-05 20:55 020 25.6
2020-Aug-05 20:50 047 0 gusting 1 25.6
2020-Aug-05 20:45 056 0 gusting 1 25.6
2020-Aug-05 20:40 048 0 gusting 2 25.6
2020-Aug-05 20:35 047 0 gusting 3 25.6
2020-Aug-05 20:25 056 0 gusting 3 26.1
2020-Aug-05 20:20 060 0 gusting 2 25.6
2020-Aug-05 20:15 052 0 gusting 2 26.1
2020-Aug-05 20:10 047 0 gusting 1 26.1
2020-Aug-05 20:05 047 0 gusting 2 26.1
2020-Aug-05 20:00 045 0 gusting 2 26.1
2020-Aug-05 19:55 046 0 gusting 2 26.1
2020-Aug-05 19:50 036 0 gusting 2 26.1
2020-Aug-05 19:45 036 1 gusting 3 26.1
2020-Aug-05 19:40 045 1 gusting 3 26.1
2020-Aug-05 19:35 041 1 gusting 4 26.1
2020-Aug-05 19:30 037 1 gusting 4 26.1
2020-Aug-05 19:25 046 1 gusting 4 26.1
2020-Aug-05 19:20 056 2 gusting 5 26.1
2020-Aug-05 19:15 064 1 gusting 5 26.1
2020-Aug-05 19:10 100 0 gusting 4 26.1
2020-Aug-05 19:05 105 26.7
2020-Aug-05 19:00 116 0 gusting 2 26.7
2020-Aug-05 18:55 154 0 gusting 1 26.7
2020-Aug-05 18:50 177 0 gusting 3 26.7
2020-Aug-05 18:45 209 0 gusting 3 26.7
2020-Aug-05 18:40 200 0 gusting 3 26.7
2020-Aug-05 18:35 177 1 gusting 3 26.7
2020-Aug-05 18:30 184 1 gusting 4 26.7
2020-Aug-05 18:25 190 1 gusting 4 26.7
2020-Aug-05 18:20 200 1 gusting 5 26.7
2020-Aug-05 18:15 194 2 gusting 5 26.7
2020-Aug-05 18:10 184 2 gusting 6 26.7
2020-Aug-05 18:05 193 2 gusting 6 26.7
2020-Aug-05 18:00 190 2 gusting 5 26.7
2020-Aug-05 17:50 191 2 gusting 7 26.7
2020-Aug-05 17:45 176 2 gusting 6 26.7
2020-Aug-05 17:40 188 2 gusting 6 26.7
2020-Aug-05 17:35 192 3 gusting 6 26.7
2020-Aug-05 17:30 191 3 gusting 7 26.7
2020-Aug-05 17:25 198 3 gusting 7 26.7
2020-Aug-05 17:20 199 3 gusting 6 27.2
2020-Aug-05 17:15 190 3 gusting 7 27.2
2020-Aug-05 17:10 188 3 gusting 8 27.2
2020-Aug-05 17:05 195 4 gusting 8 27.8
2020-Aug-05 16:55 205 4 gusting 9 27.8
2020-Aug-05 16:50 204 3 gusting 9 28.3
2020-Aug-05 16:45 204 4 gusting 10 28.3
2020-Aug-05 16:40 209 5 gusting 10 28.9
2020-Aug-05 16:35 215 4 gusting 9 29.4
2020-Aug-05 16:30 192 3 gusting 8 29.4
2020-Aug-05 16:25 183 2 gusting 6 30.0
2020-Aug-05 16:20 196 2 gusting 6 30.0
2020-Aug-05 16:15 186 1 gusting 6 30.0
2020-Aug-05 16:10 188 2 gusting 5 30.0
2020-Aug-05 16:05 181 2 gusting 5 30.0
2020-Aug-05 16:00 189 1 gusting 5 30.0
2020-Aug-05 15:55 183 1 gusting 6 30.0
2020-Aug-05 15:50 186 2 gusting 6 30.0
2020-Aug-05 15:45 202 2 gusting 6 30.6
2020-Aug-05 15:40 196 3 gusting 8 30.6
2020-Aug-05 15:35 197 3 gusting 8 30.6
2020-Aug-05 15:30 183 4 gusting 8 30.6
2020-Aug-05 15:25 182 4 gusting 8 30.6
2020-Aug-05 15:20 192 4 gusting 7 30.6
2020-Aug-05 15:15 200 4 gusting 9 30.6
2020-Aug-05 15:10 196 4 gusting 9 30.6
2020-Aug-05 15:05 195 4 gusting 13 31.1
2020-Aug-05 15:00 201 4 gusting 13 31.7
2020-Aug-05 14:55 196 3 gusting 9 31.7
2020-Aug-05 14:50 193 4 gusting 9 31.7
2020-Aug-05 14:45 194 4 gusting 9 31.7
2020-Aug-05 14:40 190 3 gusting 8 31.7
2020-Aug-05 14:35 182 3 gusting 7 32.2
2020-Aug-05 14:30 162 3 gusting 7 32.2
2020-Aug-05 14:25 162 3 gusting 9 32.2
2020-Aug-05 14:20 183 4 gusting 9 32.2
2020-Aug-05 14:15 198 5 gusting 9 32.2
2020-Aug-05 14:10 196 5 gusting 9 32.8
2020-Aug-05 14:05 174 4 gusting 8 32.8
2020-Aug-05 14:00 179 3 gusting 8 33.3
2020-Aug-05 13:55 190 3 gusting 6 33.3
2020-Aug-05 13:50 196 3 gusting 6 33.3
2020-Aug-05 13:45 213 3 gusting 8 33.3
2020-Aug-05 13:40 197 3 gusting 8 33.3
2020-Aug-05 13:35 172 3 gusting 7 33.3
2020-Aug-05 13:30 174 3 gusting 7 33.3
2020-Aug-05 13:25 175 3 gusting 9 33.3
2020-Aug-05 13:20 181 3 gusting 9 33.3
2020-Aug-05 13:15 196 4 gusting 9 33.9
2020-Aug-05 13:10 191 4 gusting 9 33.9
2020-Aug-05 13:05 194 4 gusting 9 33.9
2020-Aug-05 13:00 190 4 gusting 9 33.9
2020-Aug-05 12:55 160 3 gusting 9 34.4
2020-Aug-05 12:50 176 4 gusting 9 33.9
2020-Aug-05 12:45 175 4 gusting 9 34.4
2020-Aug-05 12:40 152 4 gusting 9 33.9
2020-Aug-05 12:35 138 3 gusting 9 34.4
2020-Aug-05 12:30 095 2 gusting 9 34.4
2020-Aug-05 12:25 056 1 gusting 6 34.4
2020-Aug-05 12:20 051 2 gusting 6 34.4
2020-Aug-05 12:15 022 2 gusting 6 34.4
2020-Aug-05 12:10 028 2 gusting 6 34.4
2020-Aug-05 12:05 044 1 gusting 6 34.4
2020-Aug-05 12:00 050 2 gusting 6 34.4
2020-Aug-05 11:55 063 2 gusting 8 33.9
2020-Aug-05 11:50 067 2 gusting 8 33.9
2020-Aug-05 11:45 070 2 gusting 7 33.9
2020-Aug-05 11:40 063 4 gusting 10 33.9
2020-Aug-05 11:35 066 4 gusting 10 33.3
2020-Aug-05 11:30 060 2 gusting 6 33.3
2020-Aug-05 11:25 068 2 gusting 6 33.9
2020-Aug-05 11:20 110 2 gusting 6 33.9
2020-Aug-05 11:15 074 2 gusting 6 33.3
2020-Aug-05 11:10 064 2 gusting 6 33.3
2020-Aug-05 11:05 088 1 gusting 6 33.3
2020-Aug-05 11:00 090 1 gusting 4 33.3
2020-Aug-05 10:55 079 2 gusting 6 33.3
2020-Aug-05 10:50 046 4 gusting 10 33.3
2020-Aug-05 10:45 047 3 gusting 10 33.3
2020-Aug-05 10:40 048 1 gusting 6 33.3
2020-Aug-05 10:35 054 1 gusting 8 33.9
2020-Aug-05 10:30 080 2 gusting 8 33.9
2020-Aug-05 10:25 058 2 gusting 7 33.9
2020-Aug-05 10:20 064 1 gusting 6 34.4
2020-Aug-05 10:15 067 0 gusting 4 33.9
2020-Aug-05 10:10 253 0 gusting 4 33.9
2020-Aug-05 10:05 218 0 gusting 4 34.4
2020-Aug-05 10:00 211 0 gusting 3 33.9
2020-Aug-05 09:55 202 1 gusting 5 33.9
2020-Aug-05 09:50 206 2 gusting 5 33.3
2020-Aug-05 09:45 219 2 gusting 5 33.3
2020-Aug-05 09:40 189 1 gusting 4 32.8
2020-Aug-05 09:35 106 0 gusting 6 32.2
2020-Aug-05 09:30 058 1 gusting 6 32.2
2020-Aug-05 09:25 092 1 gusting 6 32.2
2020-Aug-05 09:20 109 1 gusting 6 32.2
2020-Aug-05 09:15 090 1 gusting 6 32.2
2020-Aug-05 09:10 106 1 gusting 6 32.2
2020-Aug-05 09:05 093 1 gusting 6 31.7
2020-Aug-05 09:00 080 2 gusting 6 31.7
2020-Aug-05 08:55 085 2 gusting 7 31.7
2020-Aug-05 08:50 086 2 gusting 7 31.7
2020-Aug-05 08:45 070 2 gusting 6 31.7
2020-Aug-05 08:40 051 2 gusting 6 31.7
2020-Aug-05 08:35 066 2 gusting 6 31.7
2020-Aug-05 08:30 087 2 gusting 6 31.7
2020-Aug-05 08:25 082 1 gusting 6 31.7
2020-Aug-05 08:20 076 1 gusting 6 31.7
2020-Aug-05 08:15 084 1 gusting 9 31.1
2020-Aug-05 08:10 083 2 gusting 9 31.1
2020-Aug-05 08:05 088 1 gusting 6 31.1
2020-Aug-05 08:00 070 2 gusting 6 30.6
2020-Aug-05 07:55 037 1 gusting 6 31.1
2020-Aug-05 07:50 059 0 gusting 3 30.6
2020-Aug-05 07:45 139 0 gusting 3 30.6
2020-Aug-05 07:40 107 0 gusting 3 30.0
2020-Aug-05 07:35 056 1 gusting 4 29.4
2020-Aug-05 07:30 116 1 gusting 6 29.4
2020-Aug-05 07:25 103 2 gusting 6 29.4
2020-Aug-05 07:20 059 1 gusting 6 29.4
2020-Aug-05 07:15 060 1 gusting 6 29.4
2020-Aug-05 07:10 075 2 gusting 6 28.9
2020-Aug-05 07:05 070 2 gusting 6 28.9
2020-Aug-05 07:00 046 2 gusting 6 28.9
2020-Aug-05 06:55 040 2 gusting 6 28.3
2020-Aug-05 06:50 066 2 gusting 6 28.3
2020-Aug-05 06:45 064 3 gusting 6 28.3
2020-Aug-05 06:40 039 3 gusting 9 28.3
2020-Aug-05 06:35 030 3 gusting 9 27.8
2020-Aug-05 06:30 024 3 gusting 9 27.8
2020-Aug-05 06:25 032 3 gusting 9 27.8
2020-Aug-05 06:20 038 3 gusting 6 27.8
2020-Aug-05 06:15 045 4 gusting 12 27.2
2020-Aug-05 06:10 042 5 gusting 12 27.2
2020-Aug-05 06:05 045 5 gusting 12 26.7
2020-Aug-05 06:00 030 5 gusting 11 26.7
2020-Aug-05 05:55 033 6 gusting 12 26.7
2020-Aug-05 05:50 049 6 gusting 14 26.7
2020-Aug-05 05:45 048 6 gusting 14 26.7
2020-Aug-05 05:40 061 4 gusting 13 26.7
2020-Aug-05 05:35 054 4 gusting 12 26.7
2020-Aug-05 05:30 032 3 gusting 9 26.7
2020-Aug-05 05:25 035 2 gusting 6 26.7
2020-Aug-05 05:20 057 2 gusting 6 26.1
2020-Aug-05 05:15 060 2 gusting 6 26.1
2020-Aug-05 05:10 053 2 gusting 6 26.1
2020-Aug-05 05:05 041 2 gusting 6 26.1
2020-Aug-05 04:55 041 3 gusting 7 25.6
2020-Aug-05 04:50 037 3 gusting 7 25.6
2020-Aug-05 04:45 039 2 gusting 6 25.6
2020-Aug-05 04:40 051 3 gusting 9 25.6
2020-Aug-05 04:35 051 3 gusting 9 25.0
2020-Aug-05 04:30 054 2 gusting 6 25.0
2020-Aug-05 04:25 069 1 gusting 5 25.0
2020-Aug-05 04:20 045 1 gusting 3 25.0
2020-Aug-05 04:15 039 1 gusting 3 24.4
2020-Aug-05 04:10 036 1 gusting 4 24.4
2020-Aug-05 04:05 030 1 gusting 4 24.4
2020-Aug-05 04:00 045 2 gusting 4 24.4
2020-Aug-05 03:55 038 1 gusting 5 24.4
2020-Aug-05 03:50 017 1 gusting 6 23.9
2020-Aug-05 03:45 012 1 gusting 6 23.9
2020-Aug-05 03:40 009 0 gusting 3 23.9
2020-Aug-05 03:35 020 0 gusting 2 23.9
2020-Aug-05 03:30 035 0 gusting 2 23.9
2020-Aug-05 03:25 025 0 gusting 2 23.9
2020-Aug-05 03:20 020 0 gusting 3 23.9
2020-Aug-05 03:15 031 1 gusting 6 24.4
2020-Aug-05 03:10 041 1 gusting 6 24.4
2020-Aug-05 03:05 055 1 gusting 5 23.9
2020-Aug-05 03:00 056 2 gusting 5 24.4
2020-Aug-05 02:55 049 2 gusting 5 23.9
2020-Aug-05 02:50 039 2 gusting 4 23.3
2020-Aug-05 02:45 047 1 gusting 4 23.9
2020-Aug-05 02:40 054 1 gusting 4 23.3
2020-Aug-05 02:30 039 2 gusting 5 23.9
2020-Aug-05 02:25 041 1 gusting 5 23.9
2020-Aug-05 02:20 022 0 gusting 5 23.9
2020-Aug-05 02:15 002 0 gusting 3 23.3
2020-Aug-05 02:10 034 1 gusting 4 23.3
2020-Aug-05 02:05 042 2 gusting 5 23.9
2020-Aug-05 02:00 034 2 gusting 5 23.3
2020-Aug-05 01:55 020 1 gusting 5 23.9
2020-Aug-05 01:50 036 0 gusting 3 23.9
2020-Aug-05 01:45 052 0 gusting 3 24.4
2020-Aug-05 01:40 038 0 gusting 2 24.4
2020-Aug-05 01:35 032 0 gusting 3 24.4
2020-Aug-05 01:30 042 1 gusting 6 24.4
2020-Aug-05 01:25 042 2 gusting 6 24.4
2020-Aug-05 01:20 037 1 gusting 6 24.4
2020-Aug-05 01:15 049 1 gusting 4 24.4
2020-Aug-05 01:10 051 0 gusting 4 24.4
2020-Aug-05 01:05 033 0 gusting 2 24.4
2020-Aug-05 01:00 025 0 gusting 2 24.4
2020-Aug-05 00:55 002 0 gusting 3 24.4
2020-Aug-05 00:50 018 1 gusting 4 24.4
2020-Aug-05 00:45 040 1 gusting 4 24.4
2020-Aug-05 00:40 054 0 gusting 4 25.0
2020-Aug-05 00:35 071 0 gusting 3 25.0
2020-Aug-05 00:30 055 0 gusting 3 25.0
2020-Aug-05 00:25 041 0 gusting 2 25.0
2020-Aug-05 00:20 051 0 gusting 2 25.0
2020-Aug-05 00:15 039 0 gusting 2 25.0
2020-Aug-05 00:10 012 0 gusting 2 25.0
2020-Aug-05 00:05 346 0 gusting 1 25.0
2020-Aug-05 00:00 356 0 gusting 3 25.0
2020-Aug-04 23:55 008 0 gusting 3 25.0
2020-Aug-04 23:50 355 25.0
2020-Aug-04 23:45 339 0 gusting 3 24.4
2020-Aug-04 23:40 338 0 gusting 3 24.4
2020-Aug-04 23:35 336 0 gusting 3 24.4
2020-Aug-04 23:25 004 0 gusting 2 24.4
2020-Aug-04 23:20 027 0 gusting 3 24.4
2020-Aug-04 23:15 043 1 gusting 3 24.4
2020-Aug-04 23:10 037 0 gusting 2 24.4
2020-Aug-04 23:05 025 0 gusting 2 24.4
2020-Aug-04 23:00 023 0 gusting 2 24.4
2020-Aug-04 22:55 036 0 gusting 1 24.4
2020-Aug-04 22:50 017 0 gusting 2 24.4
2020-Aug-04 22:45 352 0 gusting 2 24.4
2020-Aug-04 22:40 354 0 gusting 2 24.4
2020-Aug-04 22:35 346 0 gusting 3 24.4
2020-Aug-04 22:30 332 0 gusting 3 24.4
2020-Aug-04 22:25 322 0 gusting 3 24.4
2020-Aug-04 22:20 326 0 gusting 3 24.4
2020-Aug-04 22:15 351 0 gusting 2 24.4
2020-Aug-04 22:10 358 0 gusting 3 24.4
2020-Aug-04 22:05 009 0 gusting 3 24.4
2020-Aug-04 22:00 004 0 gusting 3 24.4
2020-Aug-04 21:55 343 0 gusting 3 25.0
2020-Aug-04 21:50 345 0 gusting 3 25.0
2020-Aug-04 21:45 003 0 gusting 2 25.0
2020-Aug-04 21:40 012 0 gusting 2 25.0
2020-Aug-04 21:35 004 0 gusting 1 25.0
2020-Aug-04 21:30 352 25.0
2020-Aug-04 21:25 351 0 gusting 2 25.0
2020-Aug-04 21:20 347 0 gusting 2 25.0
2020-Aug-04 21:15 345 0 gusting 2 25.0
2020-Aug-04 21:10 355 0 gusting 2 25.0
2020-Aug-04 21:05 005 0 gusting 2 25.6
2020-Aug-04 21:00 005 0 gusting 2 25.6
2020-Aug-04 20:55 026 0 gusting 2 25.6
2020-Aug-04 20:50 038 0 gusting 2 25.6
2020-Aug-04 20:45 024 0 gusting 1 25.6
2020-Aug-04 20:40 003 25.6
2020-Aug-04 20:35 325 0 gusting 2 25.6
2020-Aug-04 20:30 318 0 gusting 2 25.6
2020-Aug-04 20:25 320 0 gusting 2 25.6
2020-Aug-04 20:20 321 0 gusting 2 25.6
2020-Aug-04 20:15 319 0 gusting 2 25.6
2020-Aug-04 20:10 317 26.1
2020-Aug-04 20:00 001 26.1
2020-Aug-04 19:55 276 26.1
2020-Aug-04 19:50 244 0 gusting 3 26.1
2020-Aug-04 19:45 241 1 gusting 3 26.1
2020-Aug-04 19:40 237 1 gusting 3 26.1
2020-Aug-04 19:35 241 0 gusting 4 26.7
2020-Aug-04 19:25 240 2 gusting 6 26.7
2020-Aug-04 19:20 247 1 gusting 6 26.7
2020-Aug-04 19:15 218 0 gusting 5 26.7
2020-Aug-04 19:10 246 0 gusting 4 26.7
2020-Aug-04 19:05 257 1 gusting 5 26.7
2020-Aug-04 18:55 219 1 gusting 4 26.7
2020-Aug-04 18:50 226 1 gusting 4 26.7
2020-Aug-04 18:45 208 1 gusting 3 26.7
2020-Aug-04 18:40 195 1 gusting 3 26.7
2020-Aug-04 18:35 189 1 gusting 4 26.7
2020-Aug-04 18:30 184 1 gusting 4 26.7
2020-Aug-04 18:25 183 1 gusting 3 26.7
2020-Aug-04 18:20 193 1 gusting 4 26.7
2020-Aug-04 18:15 211 1 gusting 6 26.7
2020-Aug-04 18:10 205 2 gusting 6 26.7
2020-Aug-04 18:05 187 2 gusting 6 26.7
2020-Aug-04 18:00 185 2 gusting 6 27.2
2020-Aug-04 17:55 200 2 gusting 6 27.2
2020-Aug-04 17:50 190 2 gusting 5 27.2
2020-Aug-04 17:45 175 2 gusting 6 27.2
2020-Aug-04 17:40 174 2 gusting 6 27.2
2020-Aug-04 17:35 172 2 gusting 6 27.8
2020-Aug-04 17:30 173 2 gusting 5 27.2
2020-Aug-04 17:25 186 1 gusting 5 27.8
2020-Aug-04 17:20 202 2 gusting 6 27.8
2020-Aug-04 17:15 193 2 gusting 6 27.8
2020-Aug-04 17:10 171 1 gusting 7 27.8
2020-Aug-04 17:05 166 2 gusting 7 28.3
2020-Aug-04 17:00 168 2 gusting 7 28.3
2020-Aug-04 16:55 179 2 gusting 6 28.3
2020-Aug-04 16:50 182 2 gusting 7 28.9
2020-Aug-04 16:45 170 2 gusting 7 28.9
2020-Aug-04 16:40 179 2 gusting 7 28.3
2020-Aug-04 16:35 192 3 gusting 6 28.9
2020-Aug-04 16:30 173 3 gusting 9 29.4
2020-Aug-04 16:25 172 3 gusting 9 29.4
2020-Aug-04 16:20 188 3 gusting 6 29.4
2020-Aug-04 16:15 188 3 gusting 8 29.4
2020-Aug-04 16:10 192 4 gusting 8 29.4
2020-Aug-04 16:05 195 4 gusting 8 29.4
2020-Aug-04 16:00 175 3 gusting 7 29.4
2020-Aug-04 15:55 159 3 gusting 9 29.4
2020-Aug-04 15:50 165 4 gusting 9 29.4
2020-Aug-04 15:45 161 4 gusting 9 29.4
2020-Aug-04 15:40 168 4 gusting 9 30.0
2020-Aug-04 15:35 171 3 gusting 9 30.0
2020-Aug-04 15:30 166 3 gusting 8 30.0
2020-Aug-04 15:25 168 3 gusting 9 30.0
2020-Aug-04 15:20 167 4 gusting 11 30.0
2020-Aug-04 15:15 172 4 gusting 11 30.0
2020-Aug-04 15:10 171 4 gusting 7 30.0
2020-Aug-04 15:05 159 4 gusting 9 30.6
2020-Aug-04 14:55 174 4 gusting 9 30.6
2020-Aug-04 14:50 174 4 gusting 9 31.1
2020-Aug-04 14:45 185 4 gusting 8 31.1
2020-Aug-04 14:40 182 4 gusting 8 31.1
2020-Aug-04 14:35 170 3 gusting 8 31.1
2020-Aug-04 14:30 182 4 gusting 9 31.7
2020-Aug-04 14:25 176 4 gusting 13 31.1
2020-Aug-04 14:20 177 4 gusting 13 31.7
2020-Aug-04 14:15 201 2 gusting 13 31.7
2020-Aug-04 14:10 199 3 gusting 9 31.7
2020-Aug-04 14:05 193 3 gusting 9 31.7
2020-Aug-04 13:55 157 2 gusting 7 31.7
2020-Aug-04 13:50 137 2 gusting 6 31.7
2020-Aug-04 13:45 166 3 gusting 9 31.7
2020-Aug-04 13:40 173 3 gusting 9 31.7
2020-Aug-04 13:35 176 3 gusting 8 31.7
2020-Aug-04 13:30 170 3 gusting 8 31.7
2020-Aug-04 13:25 167 4 gusting 9 31.7
2020-Aug-04 13:20 169 4 gusting 9 31.7
2020-Aug-04 13:15 168 5 gusting 9 31.7
2020-Aug-04 13:10 172 5 gusting 10 31.7
2020-Aug-04 13:05 174 5 gusting 10 32.2
2020-Aug-04 13:00 184 4 gusting 9 32.2
2020-Aug-04 12:55 195 5 gusting 12 32.2
2020-Aug-04 12:50 197 4 gusting 12 32.2
2020-Aug-04 12:45 186 3 gusting 9 32.2
2020-Aug-04 12:40 176 4 gusting 9 32.2
2020-Aug-04 12:35 186 4 gusting 8 32.2
2020-Aug-04 12:25 188 4 gusting 10 32.2
2020-Aug-04 12:20 184 4 gusting 10 32.8
2020-Aug-04 12:15 186 4 gusting 10 32.2
2020-Aug-04 12:10 199 4 gusting 12 32.2
2020-Aug-04 12:05 189 4 gusting 12 32.2
2020-Aug-04 12:00 197 4 gusting 10 32.8
2020-Aug-04 11:55 212 4 gusting 13 32.8
2020-Aug-04 11:50 201 4 gusting 13 32.8
2020-Aug-04 11:45 196 4 gusting 9 32.8
2020-Aug-04 11:40 191 4 gusting 9 32.8
2020-Aug-04 11:35 186 3 gusting 9 32.8
2020-Aug-04 11:30 182 2 gusting 9 32.8
2020-Aug-04 11:25 179 3 gusting 9 32.8
2020-Aug-04 11:20 161 3 gusting 9 32.8
2020-Aug-04 11:15 160 2 gusting 6 32.8
2020-Aug-04 11:10 194 3 gusting 9 32.8
2020-Aug-04 11:05 185 3 gusting 9 32.8
2020-Aug-04 11:00 175 4 gusting 9 32.8
2020-Aug-04 10:55 185 3 gusting 9 32.8
2020-Aug-04 10:50 187 2 gusting 8 33.3
2020-Aug-04 10:45 181 2 gusting 6 32.8
2020-Aug-04 10:40 186 3 gusting 9 32.8
2020-Aug-04 10:35 174 3 gusting 9 32.2
2020-Aug-04 10:30 110 2 gusting 8 32.2
2020-Aug-04 10:25 118 2 gusting 6 32.2
2020-Aug-04 10:20 148 2 gusting 6 32.2
2020-Aug-04 10:15 183 2 gusting 8 32.2
2020-Aug-04 10:10 186 4 gusting 8 32.2
2020-Aug-04 10:05 182 4 gusting 9 32.2
2020-Aug-04 10:00 182 4 gusting 9 32.2